{"data":{"norad_id":67978,"intl_designator":"2026-038T","name":"STARLINK-36364","alt_names":[],"object_type":"PAYLOAD","status":"ACTIVE","operator":null,"country":"US","launch_date":"2026-02-25","launch_site_code":"AFWTR","launch_vehicle":null,"mission":null,"orbit_class":"UNKNOWN","rcs_meters":null,"size_class":null,"mass_kg":null,"dimensions":null,"purposes":["comms"],"wikipedia_slug":null,"has_3d_model":false,"image_url":null,"decayed_at":null,"tle_current":{"epoch":"2026-05-24T23:23:53.216736Z","epoch_age_seconds":71118,"freshness":"FRESH","line1":"1 67978U 26038T   26144.97492149  .00016338  00000+0  50708-3 0  9991","line2":"2 67978  97.2822 155.0595 0001709  99.6033 260.5403 15.33457969 14935","mean_motion":15.33457969,"eccentricity":0.0001709,"inclination_deg":97.2822,"raan_deg":155.0595,"arg_perigee_deg":99.6033,"mean_anomaly_deg":260.5403,"bstar":0.00050708,"rev_number":1493,"period_min":93.905410458629,"perigee_km":464.33500978314,"apogee_km":466.67416647796,"semimajor_km":6843.6415881305,"source":"CELESTRAK","updated_at":"2026-05-25T13:38:21.776580Z"}}}